Weather in Mariehamn

Finland     60°06′42″N   19°56′33″E
temp.,
°C
wind,
m/s
gust,
m/s
humid.,
%
clouds,
%
prec.,
mm/h
press.,
hPa
HPBL,
m
20 april, tue
tue2000:00+5e44770 0.0 102631
03:00+5ene44750 0.0 102537
06:00+5ene33730 0.0 102325
09:00+5e34750 0.0 102228
12:00+5e33770 0.0 102130
15:00+5ese22710 0.0 101916
18:00+6se22675 0.0 101711
21:00+5se3372100 0.0 101527
21 april, wed
wed2100:00+4se4682100 0.0 101372
03:00+4sse3484100 0.0 101145
06:00+4s338263 0.0 100830
09:00+4sse44780 0.0 100649
12:00+5sse6678100 0.0 100488
15:00+5sse7983100 0.0 1003117
18:00+5s7108799 0.0 1001150
21:00+5s6989100 0.0 1000100
22 april, thu
thu2200:00+5s5691100 0.0 99970
03:00+5ese228469 0.2 99912
06:00+4se33898 0.0 99838
09:00+4s11885 0.0 99915
12:00+4s568658 0.1 1000123
15:00+4s56864 0.1 1001185
18:00+4se449099 0.0 1002262
21:00+2nne3495100 1.4 1002307
23 april, fri
fri2300:00+3n7894100 3.9 1001637
03:00+2n81298100 9.8 1001619
06:00+2n131492100 3.2 1002810
09:00+2nnw131496100 3.3 1003731
12:00+2nnw91198100 0.3 1004615
15:00+2nnw111297100 0.9 1006779
18:00+2nnw10119059 0.1 1007640
21:00+3nnw679195 0.2 1007508
24 april, sat
sat2400:00+3nnw91092100 0.1 1008816
03:00+2nnw101197100 0.6 1008639
06:00+2nnw101298100 0.9 1008693
09:00+2nnw131487100 1.8 1009944
12:00+2nnw121389100 0.2 1010880
15:00+2nnw111288100 0.8 1010920
18:00+2wnw91299100 0.8 1009655
21:00+2n9107995 1.3 1009890